HG8GL-6 Weather Reports


time (UTC)temp
C
wind
direction
speed
KPH
gust
KPH
rain 1hr
cm
rain 24hr
cm
rain mn
cm
humidity
%
barometer
mb
20260906010041 16 248 0.0 0.0 0.00 0.10 0.00 86 1022.0
20260906005011 16 248 0.0 0.0 0.00 0.10 0.00 87 1022.0
20260906004011 16 249 0.0 0.0 0.00 0.10 0.00 87 1022.0
20260906002941 16 270 0.0 0.0 0.00 0.10 0.00 87 1022.0
20260906001841 16 265 0.0 0.0 0.00 0.10 0.00 87 1022.0
20260906000811 16 255 0.0 0.0 0.00 0.10 0.00 87 1022.0
20260905235741 16 248 0.0 0.0 0.00 0.10 0.00 87 1022.0
20260905234741 16 268 0.0 0.0 0.00 0.10 0.00 88 1022.0
20260905233741 16 292 0.0 0.0 0.00 0.10 0.00 88 1022.0
20260905232741 16 265 0.0 0.0 0.00 0.10 0.00 88 1022.0
20260905231741 16 271 0.0 0.0 0.00 0.10 0.00 88 1022.0
20260905230711 16 259 0.0 0.0 0.00 0.10 0.00 88 1022.0
20260905225711 16 284 0.0 0.0 0.00 0.10 0.10 88 1022.0
20260905224641 16 274 0.0 0.0 0.00 0.10 0.10 88 1022.0
20260905223611 16 250 0.0 0.0 0.00 0.10 0.10 89 1022.0
20260905222611 16 250 0.0 0.0 0.00 0.10 0.10 89 1022.0
20260905221541 16 261 0.0 0.0 0.00 0.10 0.10 90 1022.0
20260905220511 16 256 0.0 0.0 0.00 0.10 0.10 89 1022.0
20260905215441 16 248 0.0 0.0 0.00 0.10 0.10 89 1022.0
20260905214411 16 243 0.0 0.0 0.00 0.10 0.10 88 1022.0
20260905213411 16 248 0.0 0.0 0.00 0.10 0.10 87 1022.0
20260905212411 16 252 0.0 0.0 0.00 0.10 0.10 87 1022.0
20260905211341 16 258 0.0 0.0 0.00 0.10 0.10 87 1022.0
20260905210341 16 248 0.0 0.0 0.00 0.10 0.10 86 1022.0
20260905205311 16 254 0.0 0.0 0.00 0.10 0.10 85 1022.0
20260905204311 17 249 0.0 0.0 0.00 0.10 0.10 84 1021.0
20260905203311 17 262 0.0 0.0 0.00 0.10 0.10 84 1022.0
20260905202241 17 292 0.0 0.0 0.00 0.10 0.10 83 1021.1
20260905201211 17 292 0.0 0.0 0.00 0.10 0.10 83 1021.0
20260905200141 17 291 0.0 0.0 0.00 0.10 0.10 83 1021.0
20260905195141 17 309 0.0 0.0 0.00 0.10 0.10 83 1020.0
20260905194111 17 294 0.0 0.0 0.00 0.10 0.10 83 1020.0
20260905193040 17 267 0.0 0.0 0.00 0.10 0.10 82 1021.0
20260905192010 17 270 0.0 0.0 0.00 0.10 0.10 82 1020.0
20260905191010 17 270 0.0 0.0 0.00 0.10 0.10 83 1020.0
20260905190010 17 287 0.0 0.0 0.00 0.10 0.10 82 1020.0
20260905184940 18 281 0.0 0.0 0.00 0.10 0.10 80 1020.0
20260905183910 18 294 0.0 0.0 0.00 0.10 0.10 80 1020.0
20260905182840 18 289 0.0 0.0 0.03 0.10 0.10 80 1021.0
20260905181810 18 286 0.0 0.0 0.03 0.10 0.10 79 1020.0
20260905180740 18 258 0.0 0.0 0.03 0.10 0.10 78 1020.0
20260905175710 18 259 0.0 0.0 0.10 0.10 0.10 78 1020.0
20260905174640 18 244 0.0 0.0 0.10 0.10 0.10 75 1019.0
20260905173540 19 257 0.0 0.0 0.10 0.10 0.10 73 1019.0
20260905172611 19 248 0.0 0.0 0.08 0.08 0.08 71 1019.0
20260905172540 19 248 0.0 0.0 0.08 0.08 0.08 71 1019.0
20260905171510 20 250 0.0 0.0 0.08 0.08 0.08 67 1019.0
20260905170510 20 248 0.0 0.0 0.05 0.05 0.05 62 1019.0
20260905165510 21 271 0.0 0.0 0.00 0.00 0.00 52 1019.0
20260905164440 22 285 0.0 0.0 0.00 0.00 0.00 46 1019.0
20260905163440 22 272 0.0 0.0 0.00 0.00 0.00 45 1019.0
20260905162440 22 290 0.0 0.0 0.00 0.00 0.00 44 1019.0
20260905161440 22 273 0.0 0.0 0.00 0.00 0.00 44 1019.0
20260905160440 22 264 0.0 0.0 0.00 0.00 0.00 44 1019.0
20260905155440 22 267 0.0 0.0 0.00 0.00 0.00 44 1019.0
20260905154410 22 288 0.0 0.0 0.00 0.00 0.00 44 1019.0
20260905153410 22 297 0.0 0.0 0.00 0.00 0.00 44 1019.0
20260905152340 22 311 0.0 0.0 0.00 0.00 0.00 43 1019.0
20260905151340 22 297 0.0 0.0 0.00 0.00 0.00 43 1019.0
20260905150310 22 298 0.0 0.0 0.00 0.00 0.00 42 1018.0
20260905145310 22 274 0.0 0.0 0.00 0.00 0.00 42 1018.0
20260905144240 22 300 0.0 0.0 0.00 0.00 0.00 41 1018.0
20260905143240 22 294 0.0 0.0 0.00 0.00 0.00 41 1019.0
20260905142210 23 321 0.0 0.0 0.00 0.00 0.00 40 1019.0
20260905141140 23 322 0.0 0.0 0.00 0.00 0.00 38 1019.0
20260905140110 24 323 0.0 0.0 0.00 0.00 0.00 36 1018.0
20260905135040 25 291 0.0 0.0 0.00 0.00 0.00 37 1019.0
20260905134010 26 321 0.0 0.0 0.00 0.00 0.00 34 1019.0
20260905132940 27 325 0.0 0.0 0.00 0.00 0.00 30 1018.0
20260905131940 28 315 0.0 0.0 0.00 0.00 0.00 30 1018.0
20260905130910 28 324 0.0 0.0 0.00 0.00 0.00 29 1018.0
20260905125910 29 330 0.0 0.0 0.00 0.00 0.00 29 1018.0
20260905124840 30 332 0.0 0.0 0.00 0.00 0.00 28 1018.0
20260905123809 30 327 0.0 0.0 0.00 0.00 0.00 28 1018.0
20260905122739 30 318 0.0 0.0 0.00 0.00 0.00 28 1018.0
20260905121709 30 314 0.0 0.0 0.00 0.00 0.00 28 1018.0
20260905120709 31 325 0.0 0.0 0.00 0.00 0.00 28 1018.0
20260905115639 31 333 0.0 0.0 0.00 0.00 0.00 28 1018.0
20260905114639 31 346 0.0 0.0 0.00 0.00 0.00 29 1018.0
20260905113639 31 327 0.0 0.0 0.00 0.00 0.00 29 1018.0
20260905112609 31 336 0.0 0.0 0.00 0.00 0.00 29 1018.0
20260905111539 31 325 0.0 0.0 0.00 0.00 0.00 30 1018.0
20260905110539 30 335 0.0 0.0 0.00 0.00 0.00 30 1018.0
20260905105539 30 349 0.0 0.0 0.00 0.00 0.00 30 1018.0
20260905104509 30 305 0.0 0.0 0.00 0.00 0.00 31 1018.0
20260905103509 30 345 0.0 0.0 0.00 0.00 0.00 31 1018.0
20260905102439 29 325 0.0 0.0 0.00 0.00 0.00 34 1018.0
20260905101409 29 354 0.0 0.0 0.00 0.00 0.00 35 1018.0
20260905100409 30 335 0.0 0.0 0.00 0.00 0.00 34 1018.0
20260905095339 31 320 0.0 0.0 0.00 0.00 0.00 33 1018.0
20260905094339 31 332 0.0 0.0 0.00 0.00 0.00 33 1017.0
20260905093339 32 327 0.0 0.0 0.00 0.00 0.00 32 1017.0
20260905092309 32 330 0.0 0.0 0.00 0.00 0.00 33 1017.0
20260905091309 31 311 0.0 0.0 0.00 0.00 0.00 33 1017.0
20260905090309 31 289 0.0 0.0 0.00 0.00 0.00 34 1017.0
20260905085239 31 295 0.0 0.0 0.00 0.00 0.00 34 1016.1
20260905084239 31 323 0.0 0.0 0.00 0.00 0.00 34 1016.0
20260905083209 31 319 0.0 0.0 0.00 0.00 0.00 34 1016.0
20260905082209 31 323 0.0 0.0 0.00 0.00 0.00 35 1016.8
20260905081139 30 285 0.0 0.0 0.00 0.00 0.00 35 1017.0
20260905080109 30 285 0.0 0.0 0.00 0.00 0.00 37 1016.0
20260905075109 29 261 0.0 0.0 0.00 0.00 0.00 39 1015.0
20260905074039 28 261 0.0 0.0 0.00 0.00 0.00 39 1015.0
20260905073009 28 257 0.0 0.0 0.00 0.00 0.00 40 1015.0
20260905072009 27 251 0.0 0.0 0.00 0.00 0.00 42 1015.0
20260905071009 27 227 0.0 0.0 0.00 0.00 0.00 43 1015.0
20260905065939 26 250 0.0 0.0 0.00 0.00 0.00 44 1015.0
20260905064939 25 222 0.0 0.0 0.00 0.00 0.00 45 1015.0
20260905063939 25 206 0.0 0.0 0.00 0.00 0.00 48 1015.0
20260905062909 23 243 0.0 0.0 0.00 0.00 0.00 49 1015.0
20260905061839 23 209 0.0 0.0 0.00 0.00 0.00 50 1015.0
20260905060839 22 240 0.0 0.0 0.00 0.00 0.00 52 1015.0
20260905055839 22 189 0.0 0.0 0.00 0.00 0.00 53 1014.0
20260905054809 22 160 0.0 0.0 0.00 0.00 0.00 53 1014.0
20260905053738 21 175 0.0 0.0 0.00 0.00 0.00 54 1014.0
20260905052708 21 173 0.0 0.0 0.00 0.00 0.00 54 1014.0
20260905051638 21 216 0.0 0.0 0.00 0.00 0.00 54 1014.0
20260905050508 20 201 0.0 0.0 0.00 0.00 0.00 54 1014.0
20260905045508 20 169 0.0 0.0 0.00 0.00 0.00 53 1014.0
20260905044438 20 161 0.0 0.0 0.00 0.00 0.00 53 1014.0
20260905043408 20 182 0.0 0.0 0.00 0.00 0.00 52 1014.0
20260905042338 20 198 0.0 0.0 0.00 0.00 0.00 52 1014.0
20260905041338 20 197 0.0 0.0 0.00 0.00 0.00 51 1013.0
20260905040308 20 191 0.0 0.0 0.00 0.00 0.00 51 1013.0
20260905035308 20 189 0.0 0.0 0.00 0.00 0.00 50 1013.0
20260905034238 20 161 0.0 0.0 0.00 0.00 0.00 49 1014.0
20260905033208 21 167 0.0 0.0 0.00 0.00 0.00 49 1014.0
20260905032138 21 185 0.0 0.0 0.00 0.00 0.00 48 1014.0
20260905031138 21 220 0.0 0.0 0.00 0.00 0.00 47 1014.0
20260905030108 21 177 0.0 0.0 0.00 0.00 0.00 47 1014.0
20260905025108 21 177 0.0 0.0 0.00 0.00 0.00 47 1014.0
20260905024038 21 220 0.0 0.0 0.00 0.00 0.00 47 1014.0
20260905023008 22 180 0.0 0.0 0.00 0.00 0.00 46 1014.0
20260905021938 22 165 0.0 0.0 0.00 0.00 0.00 46 1014.0
20260905020938 22 199 0.0 0.0 0.00 0.00 0.00 46 1014.0
20260905015908 22 169 0.0 0.0 0.00 0.00 0.00 46 1014.0
20260905014908 22 179 0.0 0.0 0.00 0.00 0.00 46 1014.0
20260905013908 22 169 0.0 0.0 0.00 0.00 0.00 46 1014.0
20260905012838 22 163 0.0 0.0 0.00 0.00 0.00 46 1014.0
20260905011808 22 180 0.0 0.0 0.00 0.00 0.00 46 1014.0
20260905010738 22 184 0.0 0.0 0.00 0.00 0.00 46 1014.9